Вернуться в каталог

IRIDIUM 33 DEB

АктивенPO
NORAD 33775·DEBRIS·🇺🇸 United States

Запущен Sep 14, 1997 с Baikonur Cosmodrome

Loading…

Ближайшие Пролёты (ближайшие 24 часа)

TLE

СвежийSource: Space-Track

Эпоха: Sep 14, 2026, 20:49 UTC

1 33775U 97051N   26257.86766808  .00000762  00000-0  22547-3 0  9996
2 33775  86.3596 291.6090 0011296 340.2947 192.4399 14.42190032921194

Отслеживайте IRIDIUM 33 DEB в реальном времени с AllMySat

Download on the App Store